Zurück zum Katalog

DMSP 5D-2 F13 DEB

AktivSSO
NORAD 40608·DEBRIS·🇺🇸 United States

Gestartet Mar 24, 1995 von Vandenberg Space Force Base

Loading…

Nächste Überflüge (nächste 24 Stunden)

TLE

AktuellSource: Space-Track

Epoche: Sep 13, 2026, 06:23 UTC

1 40608U 95015FF  26256.26629552  .00000338  00000-0  16085-3 0  9993
2 40608  98.6134 271.2198 0032089  44.1074 316.2657 14.25432853591915

Verfolge DMSP 5D-2 F13 DEB in Echtzeit mit AllMySat

Download on the App Store